DW8349 Weather Reports


time (UTC)temp
C
wind
direction
speed
KPH
gust
KPH
rain 1hr
cm
rain 24hr
cm
rain mn
cm
humidity
%
barometer
mb
20260509173025 27 160 0.0 3.2 0.00 0.00 0.00 100 1011.5
20260509171526 26 161 0.0 3.2 0.00 0.00 0.00 100 1011.7
20260509170015 25 160 0.0 8.0 0.00 0.00 0.00 100 1011.7
20260509164517 24 159 0.0 3.2 0.00 0.00 0.00 100 1011.7
20260509163029 23 158 0.0 6.4 0.00 0.00 0.00 100 1011.5
20260509161526 23 155 0.0 0.0 0.00 0.00 0.00 100 1011.7
20260509160010 23 155 0.0 0.0 0.00 0.00 0.00 100 1011.7
20260509154517 22 155 0.0 0.0 0.00 0.00 0.00 100 1011.7
20260509153024 22 155 0.0 0.0 0.00 0.00 0.00 100 1011.7
20260509151524 22 155 0.0 0.0 0.00 0.00 0.00 100 1011.5
20260509150027 22 155 0.0 0.0 0.00 0.00 0.00 100 1011.5
20260509144513 22 155 0.0 1.6 0.00 0.00 0.00 100 1011.4
20260509143027 22 155 0.0 0.0 0.00 0.00 0.00 100 1011.5
20260509141526 22 155 0.0 0.0 0.00 0.00 0.00 100 1011.7
20260509140024 22 155 0.0 0.0 0.00 0.00 0.00 100 1011.6
20260509134512 21 155 0.0 0.0 0.00 0.00 0.00 100 1011.6
20260509133015 21 360 0.0 0.0 0.00 0.00 0.00 100 1011.5
20260509131504 21 360 0.0 0.0 0.00 0.00 0.00 100 1011.6
20260509130011 21 155 0.0 0.0 0.00 0.00 0.00 100 1011.4
20260509124507 21 155 0.0 0.0 0.00 0.00 0.00 100 1011.3
20260509123013 21 155 0.0 0.0 0.00 0.00 0.00 100 1011.1
20260509121521 21 155 0.0 1.6 0.00 0.00 0.00 100 1011.0
20260509120012 21 154 0.0 1.6 0.00 0.00 0.00 100 1010.8
20260509114504 21 198 0.0 0.0 0.00 0.00 0.00 100 1010.5
20260509113013 21 198 0.0 0.0 0.00 0.00 0.00 100 1010.9
20260509111516 21 198 0.0 0.0 0.00 0.00 0.00 100 1010.9
20260509110019 21 198 0.0 0.0 0.00 0.00 0.00 100 1010.7
20260509104503 21 198 0.0 0.0 0.00 0.00 0.00 100 1010.7
20260509103008 21 198 0.0 0.0 0.00 0.00 0.00 100 1010.5
20260509101514 21 198 0.0 0.0 0.00 0.00 0.00 100 1010.8
20260509100017 21 198 0.0 0.0 0.00 0.00 0.00 100 1010.8
20260509094522 21 198 0.0 0.0 0.00 0.00 0.00 100 1011.0
20260509093008 21 198 0.0 0.0 0.00 0.00 0.00 100 1010.8
20260509091518 21 198 0.0 0.0 0.00 0.00 0.00 100 1010.9
20260509090015 21 198 0.0 0.0 0.00 0.00 0.00 100 1010.7
20260509084526 21 198 0.0 0.0 0.00 0.00 0.00 100 1010.8
20260509083026 21 198 0.0 0.0 0.00 0.00 0.00 100 1011.3
20260509081509 21 198 0.0 0.0 0.00 0.00 0.00 100 1011.4
20260509080021 21 198 0.0 0.0 0.00 0.00 0.00 100 1011.4
20260509074519 21 198 0.0 0.0 0.00 0.00 0.00 100 1011.2
20260509073037 21 198 0.0 0.0 0.00 0.00 0.00 100 1011.3
20260509071525 21 198 0.0 0.0 0.00 0.00 0.00 100 1011.4
20260509070011 21 198 0.0 4.8 0.00 0.00 0.00 100 1011.2
20260509064516 21 198 0.0 0.0 0.00 0.00 0.00 100 1011.7
20260509063025 21 198 0.0 0.0 0.00 0.00 0.00 100 1011.8
20260509061525 21 198 0.0 0.0 0.00 0.00 0.00 100 1012.0
20260509060026 21 198 0.0 0.0 0.00 0.00 0.00 100 1012.0
20260509054526 21 198 0.0 0.0 0.00 0.00 0.00 100 1012.3
20260509053020 21 198 0.0 0.0 0.00 0.00 0.00 100 1012.1
20260509051524 21 198 0.0 0.0 0.00 0.00 0.00 100 1011.9
20260509050034 21 198 0.0 0.0 0.00 0.00 0.00 100 1011.7
20260509044513 21 198 0.0 0.0 0.00 0.00 0.00 100 1011.5
20260509043016 21 198 0.0 0.0 0.00 0.00 0.00 100 1011.3
20260509041504 21 198 0.0 0.0 0.00 0.00 0.00 100 1011.3
20260509040006 21 198 0.0 0.0 0.00 0.00 0.00 100 1011.5
20260509034512 21 198 0.0 0.0 0.00 0.00 0.00 100 1011.5
20260509033010 21 198 0.0 0.0 0.00 0.00 0.00 100 1011.4
20260509031512 21 198 0.0 0.0 0.00 0.00 0.00 100 1011.3
20260509030004 21 198 0.0 0.0 0.00 0.00 0.00 100 1011.0
20260509024507 21 198 0.0 0.0 0.00 0.00 0.00 100 1010.4
20260509023019 22 198 0.0 0.0 0.00 0.00 0.00 100 1010.4
20260509021519 22 198 0.0 0.0 0.00 0.00 0.00 100 1010.1
20260509020013 22 198 0.0 3.2 0.00 0.00 0.00 100 1009.4
20260509014505 22 198 0.0 6.4 0.00 0.00 0.00 100 1009.1
20260509013022 22 200 0.0 0.0 0.00 0.00 0.00 100 1009.1
20260509011514 22 200 0.0 0.0 0.00 0.00 0.00 100 1009.0
20260509010023 22 150 0.0 1.6 0.00 0.00 0.00 100 1009.3
20260509004533 23 150 0.0 3.2 0.00 0.00 0.00 100 1009.5
20260509003009 23 150 0.0 6.4 0.00 0.00 0.00 100 1009.7
20260509001513 23 150 0.0 1.6 0.00 0.00 0.00 100 1009.7
20260509000019 23 150 0.0 0.0 0.00 0.00 0.00 100 1009.7
20260508234518 23 151 0.0 0.0 0.00 0.00 0.00 100 1009.7
20260508233020 23 156 0.0 0.0 0.00 0.00 0.00 100 1010.1
20260508231511 23 156 0.0 1.6 0.00 0.00 0.00 100 1010.1
20260508230035 23 156 0.0 0.0 0.00 0.00 0.00 100 1010.2
20260508224519 23 156 0.0 1.6 0.00 0.00 0.00 100 1010.0
20260508223025 23 226 0.0 0.0 0.00 0.00 0.00 100 1010.8
20260508221521 24 92 0.0 0.0 0.00 0.00 0.00 100 1011.0
20260508220016 24 92 0.0 0.0 0.00 0.00 0.00 100 1011.0
20260508214519 25 92 0.0 0.0 0.00 0.00 0.00 7 1010.7
20260508213023 25 92 0.0 1.6 0.00 0.00 0.00 28 1010.6
20260508211527 25 92 0.0 4.8 0.00 0.00 0.00 30 1010.7
20260508210012 26 90 0.0 4.8 0.00 0.00 0.00 36 1010.5
20260508204518 26 90 1.6 9.7 0.00 0.00 0.00 41 1010.6
20260508203022 25 103 0.0 1.6 0.00 0.00 0.00 37 1010.9
20260508201524 25 105 0.0 0.0 0.00 0.00 0.00 32 1011.0
20260508200036 24 105 0.0 0.0 0.00 0.00 0.00 38 1011.3
20260508194516 24 105 0.0 0.0 0.00 0.00 0.00 36 1011.6
20260508193005 25 105 0.0 0.0 0.00 0.00 0.00 46 1011.7
20260508191506 25 78 0.0 0.0 0.00 0.00 0.00 43 1011.8
20260508190008 25 78 0.0 9.7 0.00 0.00 0.00 40 1011.8
20260508184521 25 80 0.0 9.7 0.00 0.00 0.00 40 1012.0
20260508183018 24 73 0.0 3.2 0.00 0.00 0.00 38 1012.2
20260508181505 24 155 0.0 8.0 0.00 0.00 0.00 44 1012.8
20260508180006 24 81 0.0 3.2 0.00 0.00 0.00 32 1012.9
20260508174513 23 82 0.0 1.6 0.00 0.00 0.00 31 1013.4